Regional Weather Roundup
Issued by NWS New Orleans/Baton Rouge, LA

Home | Current Version | Previous Version | Text Only | Print | Product List | Glossary On
Versions: 1 2 3 4 5 6 7 8 9 10 11 12 13 14 15 16 17 18 19 20 21 22 23 24 25 26 27 28 29 30 31 32 33 34 35 36 37 38 39 40 41 42 43 44 45 46 47 48 49 50
304
ASUS44 KLIX 242001
RWRLIX
NEW ORLEANS REGIONAL WEATHER ROUNDUP
NATIONAL WEATHER SERVICE NEW ORLEANS LA
200 PM CST MON NOV 24 2014

NOTE: "FAIR" INDICATES FEW OR NO CLOUDS BELOW 12,000 FEET WITH NO
      SIGNIFICANT WEATHER AND/OR OBSTRUCTIONS TO VISIBILITY.
      SKY/WX - SKY CONDITION AND SIGNIFICANT WEATHER.
      TMP - AIR TEMPERATURE.     DP    - DEWPOINT TEMPERATURE.
      RH  - RELATIVE HUMIDITY.   PRES  - PRESSURE.
      HI  - HEAT INDEX.          WCI   - WIND CHILL INDEX.

*  THESE STATIONS ARE NOT NWS OR FAA STATIONS AND ARE NOT UNDER
   NWS QUALITY CONTROL.

LAZ038-040-048-061>063-065>067-069-242100-
SOUTHEAST LOUISIANA

CITY           SKY/WX    TMP DP  RH WIND       PRES   REMARKS
N.O. AUDUBON     N/A     69  53  55 MISG        N/A
N.O. INTL ARPT PTSUNNY   69  48  47 NW14      29.90R
N.O. LAKEFRONT SUNNY     63  54  72 W9        29.90R
N.O. DOWNTOWN*   N/A     68  48  49 NW9       29.90R
SLIDELL        SUNNY     72  48  42 N9        29.87R
BATON ROUGE    SUNNY     67  44  43 NW10      29.93R
BOOTHVILLE     SUNNY     70  57  63 NW15      29.85F
BELLE CHASSE   PTSUNNY   69  48  47 NW10G18   29.87S
BOGALUSA*        N/A     69  45  41 N12       29.91R
NEW ROADS*     NOT AVBL
GONZALES*      NOT AVBL
HAMMOND*       NOT AVBL
HOUMA*         NOT AVBL
PORT FOURCHON* NOT AVBL

$$

MSZ070-080>082-242100-
SOUTHERN MISSISSIPPI

CITY           SKY/WX    TMP DP  RH WIND       PRES   REMARKS
MCCOMB         SUNNY     64  42  44 NW8       29.92R
GULFPORT       SUNNY     75  52  44 N9        29.84S
BILOXI         MOSUNNY   77  53  44 VRB2      29.84R
PASCAGOULA     MOSUNNY   78  58  49 MISG      29.83S
STENNIS ARPT*  SUNNY     73  46  38 N8        29.87R

$$

COASTAL OBSERVATIONS
LAKE AND NEARSHORE STATIONS

STATION/POSITION TIME  TEMP    WIND        PRES    WAVE
                       AIR SEA DIR/SP/G            HT/PER
                 (UTC) (F)     (DEG/KT/KT) (MB)    (FT/S)
PASCAGOULA       1900   69     260/  8/ 10 1009.5
WAVELAND YACHT   1900   71     350/  8/  9 1010.1
GRAND ISLE       1900   70 66  340/  7/ 10 1011.6
SOUTHWEST PASS   1900   74                 1011.1
NEW CANAL        1900   63 57  280/  2/  3 1012.5
SHELL BEACH      1900   65 56  300/ 12/ 13 1011.4

OFFSHORE STATIONS

STATION/POSITION TIME  TEMP    WIND        PRES    WAVE
                       AIR SEA DIR/SP/G            HT/PER
                 (UTC) (F)     (DEG/KT/KT) (MB)    (FT/S)
64 S DAUPHIN ISL 1921   70 72  310/  6/  6 1011.3    4/ 8

$$




USA.gov is the U.S. government's official web portal to all federal, state and local government web resources and services.